Other Public Products
Issued by NWS Charleston, SC

Current Version | Previous Version | Text Only | Print | Product List | Glossary Off
Versions: 1 2 3 4 5 6 7 8 9 10 11 12 13 14 15 16 17 18 19 20 21 22 23 24 25 26 27 28 29 30 31 32 33 34 35 36 37 38 39 40 41 42 43 44 45 46 47 48 49 50

000
FPUS82 KCHS 241927
OPUCHS

TEST...KCHS/KSAV Gateway Observations...TEST
National Weather Service Charleston SC
300 PM EDT MON JUL 24 2017

NOTE: "fair" indicates few or no clouds below 12,000 feet with no
significant weather and/or obstructions to visibility.

SCZ050-WAZ558-NCZ071-TXZ119-213-PAZ071-DCZ001-FLZ074-172-MI076-
NYZ176-178-MAZ016-IL014-TNZ027-NJZ106-GAZ044-MD014-242000-

...Gateway Observations for Charleston International...

CITY           SKY/WX    TMP DP  RH WIND       PRES   REMARKS
Chas Airport   CLOUDY    84  76  76 S12       29.96F HX  93
Seattle        MOSUNNY   73  54  51 NW9       30.04F
Charlotte      PTSUNNY   87  71  58 SW6       29.96F HX  93
Dallas DFW     PTSUNNY   87  73  62 S8        29.97F HX  94
Dallas Love    PTSUNNY   86  73  65 SW6       29.98F HX  93
Philladelphia  MOSUNNY   85  66  53 NW5G16    29.80F
Wash National  CLOUDY    89  68  49 N10       29.82F HX  93
Baltimore      MOSUNNY   87  68  52 W9        29.81S HX  90
Miami          CLOUDY    93  75  55 SE10      30.07F THUNDER HX 104
Detroit        CLOUDY    68  57  68 N9        29.99R
Newark         CLOUDY    70  60  70 N14       29.84S
Laguardia      CLOUDY    67  60  78 N10G20    29.83S
J F K          CLOUDY    68  61  78 N15       29.84R
Boston Logan   LGT RAIN  58  57  97 NE16G26   29.90F VSB 1
Ft. Lauderdale NOT AVBL
Chicago O`Hare PTSUNNY   73  56  54 N10       30.05F
Chicago Midway PTSUNNY   74  58  57 NE13G20   30.04F
Houston Bush   PTSUNNY   93  71  48 VRB5      29.99F HX 100
Houston Hobby  CLOUDY    94  73  50 VRB6      29.99F HX 103
Nashville      CLOUDY    89  72  56 CALM      29.97F HX  96
Atlanta        PTSUNNY   91  72  53 VRB5      29.96F HX  98

$$

GAZ044-118-TXZ119-213-NCZ071-DCZ001-MDZ014-506-PAZ021-071-NJZ106-
NYZ176-178-MAZ106-OHZ011-021-055-MIZ076-KYZ091-ILZ014-INZ047-
MNZ060-ONZ431-242000-

...Gateway Observations for Savannah International...

CITY           SKY/WX    TMP DP  RH WIND       PRES   REMARKS
Savannah Arpt  CLOUDY    92  74  55 SW7       29.97F HX 101
Atlanta        PTSUNNY   91  72  53 VRB5      29.96F HX  98
Charlotte      PTSUNNY   87  71  58 SW6       29.96F HX  93
Dallas DFW     PTSUNNY   87  73  62 S8        29.97F HX  94
Houston Bush   PTSUNNY   93  71  48 VRB5      29.99F HX 100
Wash National  CLOUDY    89  68  49 N10       29.82F HX  93
Wash Dulles    MOSUNNY   86  66  51 CALM      29.83S
Baltimore      MOSUNNY   87  68  52 W9        29.81S HX  90
Philadelphia   MOSUNNY   85  66  53 NW5G16    29.80F
Newark         CLOUDY    70  60  70 N14       29.84S
Laguardia      CLOUDY    67  60  78 N10G20    29.83S
J F K          CLOUDY    68  61  78 N15       29.84R
Boston         LGT RAIN  58  57  97 NE16G26   29.90F VSB 1
Pittsburg      MOSUNNY   79  68  69 NW13G21   29.88R
Akron          PTSUNNY   75  60  59 NW18G24   29.93R
Cleveland      CLOUDY    72  60  66 NW15      29.97R
Cincinnati     MOSUNNY   83  66  56 N8        29.96R
Columbus       MOSUNNY   80  65  61 NW13G20   29.94R
Detroit        CLOUDY    68  57  68 N9        29.99R
Chicago O`Hare PTSUNNY   73  56  54 N10       30.05F
Minneapolis    CLOUDY    75  58  55 S8        30.05F
Indianapolis   MOSUNNY   81  64  56 N10       29.98R
Toronto Canada CLOUDY    72  61  68 N18G25    29.79R

$$




USA.gov is the U.S. government's official web portal to all federal, state and local government web resources and services.